Location: Lecco
(45.8566°N, 9.3977°E)
Time: 20:38:42
(UTC+02:00)

Vanguard 1 Rocket - Pass Details

Date: 21 August 2020
Orbit: 655 x 4221 km, 34.3° (Epoch: 30 September)

Event Time Altitude Azimuth Distance (km) Brightness Sun altitude
Exits shadow 02:25:24 21° 148° (SSE) 4,650 10.6 -30.6°
Drops below altitude 10° 02:33:37 10° 109° (ESE) 4,569 10.9 -30.1°
Sets 02:37:39 0° 94° (E) 5,053 11.4 -29.9°
